TimeEST,TemperatureF,Dew PointF,Humidity,Sea Level PressureIn,VisibilityMPH,Wind Direction,Wind SpeedMPH,Gust SpeedMPH,PrecipitationIn,Events,Conditions,WindDirDegrees,DateUTC
12:15 AM,17.6,3.2,53,30.23,10.0,WNW,9.2,-,N/A,,Clear,300,2013-01-22 05:15:00
12:35 AM,17.6,3.2,53,30.23,10.0,WNW,10.4,-,N/A,,Clear,290,2013-01-22 05:35:00
12:55 AM,15.8,3.2,58,30.23,10.0,WNW,8.1,-,N/A,,Clear,300,2013-01-22 05:55:00
1:15 AM,15.8,3.2,58,30.24,10.0,NNW,11.5,-,N/A,,Clear,330,2013-01-22 06:15:00
1:35 AM,15.8,3.2,58,30.25,10.0,NW,10.4,-,N/A,,Clear,320,2013-01-22 06:35:00
1:55 AM,14.0,3.2,62,30.25,10.0,NW,12.7,17.3,N/A,,Clear,310,2013-01-22 06:55:00
2:15 AM,14.0,3.2,62,30.25,10.0,NW,9.2,-,N/A,,Clear,320,2013-01-22 07:15:00
2:35 AM,14.0,1.4,57,30.25,10.0,NW,8.1,-,N/A,,Clear,310,2013-01-22 07:35:00
2:55 AM,14.0,1.4,57,30.26,10.0,NW,8.1,-,N/A,,Clear,310,2013-01-22 07:55:00
3:15 AM,12.2,1.4,62,30.27,10.0,NW,5.8,-,N/A,,Clear,320,2013-01-22 08:15:00
3:35 AM,12.2,-0.4,57,30.27,10.0,NW,6.9,-,N/A,,Clear,310,2013-01-22 08:35:00
3:55 AM,12.2,-0.4,57,30.27,10.0,WNW,8.1,-,N/A,,Clear,300,2013-01-22 08:55:00
4:15 AM,12.2,-0.4,57,30.27,10.0,NW,5.8,-,N/A,,Clear,310,2013-01-22 09:15:00
4:35 AM,10.4,1.4,67,30.27,10.0,WNW,4.6,-,N/A,,Clear,290,2013-01-22 09:35:00
5:15 AM,10.4,1.4,67,30.27,10.0,NW,5.8,-,N/A,,Clear,310,2013-01-22 10:15:00
5:35 AM,10.4,1.4,67,30.28,10.0,WNW,6.9,-,N/A,,Clear,290,2013-01-22 10:35:00
5:55 AM,10.4,1.4,67,30.28,10.0,West,5.8,-,N/A,,Clear,280,2013-01-22 10:55:00
6:15 AM,10.4,1.4,67,30.29,10.0,West,5.8,-,N/A,,Clear,280,2013-01-22 11:15:00
6:35 AM,12.2,1.4,62,30.30,10.0,West,6.9,-,N/A,,Clear,270,2013-01-22 11:35:00
6:55 AM,10.4,1.4,67,30.31,10.0,West,10.4,-,N/A,,Clear,280,2013-01-22 11:55:00
7:15 AM,10.4,1.4,67,30.32,10.0,WNW,8.1,-,N/A,,Clear,290,2013-01-22 12:15:00
7:35 AM,12.2,-0.4,57,30.33,10.0,West,9.2,-,N/A,,Scattered Clouds,280,2013-01-22 12:35:00
7:55 AM,12.2,-0.4,57,30.32,10.0,West,6.9,-,N/A,,Scattered Clouds,270,2013-01-22 12:55:00
8:15 AM,12.2,-0.4,57,30.33,10.0,WNW,8.1,-,N/A,,Scattered Clouds,290,2013-01-22 13:15:00
8:35 AM,12.2,-0.4,57,30.34,10.0,WNW,8.1,-,N/A,,Clear,290,2013-01-22 13:35:00
8:55 AM,12.2,-0.4,57,30.34,10.0,NW,6.9,-,N/A,,Clear,310,2013-01-22 13:55:00
9:15 AM,14.0,-0.4,53,30.35,10.0,West,9.2,-,N/A,,Clear,280,2013-01-22 14:15:00
9:35 AM,14.0,-0.4,53,30.35,10.0,WNW,10.4,-,N/A,,Clear,300,2013-01-22 14:35:00
9:55 AM,14.0,-0.4,53,30.36,10.0,West,8.1,-,N/A,,Clear,280,2013-01-22 14:55:00
10:15 AM,14.0,-0.4,53,30.37,10.0,WNW,8.1,-,N/A,,Clear,290,2013-01-22 15:15:00
10:35 AM,15.8,-0.4,49,30.37,10.0,West,6.9,-,N/A,,Clear,260,2013-01-22 15:35:00
10:55 AM,15.8,-0.4,49,30.38,10.0,WNW,4.6,-,N/A,,Clear,290,2013-01-22 15:55:00
11:15 AM,15.8,-2.2,45,30.38,10.0,West,10.4,-,N/A,,Clear,270,2013-01-22 16:15:00
11:35 AM,17.6,-2.2,42,30.38,10.0,West,9.2,17.3,N/A,,Clear,280,2013-01-22 16:35:00
11:55 AM,17.6,-4.0,38,30.37,10.0,West,12.7,-,N/A,,Clear,280,2013-01-22 16:55:00
12:15 PM,17.6,-2.2,42,30.36,10.0,West,6.9,16.1,N/A,,Clear,280,2013-01-22 17:15:00
12:35 PM,19.4,-2.2,39,30.35,10.0,SW,8.1,-,N/A,,Clear,230,2013-01-22 17:35:00
12:55 PM,19.4,-4.0,36,30.33,10.0,West,10.4,16.1,N/A,,Clear,270,2013-01-22 17:55:00
1:15 PM,19.4,-2.2,39,30.33,10.0,West,11.5,-,N/A,,Clear,260,2013-01-22 18:15:00
1:35 PM,21.2,-4.0,33,30.32,10.0,West,11.5,17.3,N/A,,Clear,280,2013-01-22 18:35:00
1:55 PM,21.2,-4.0,33,30.31,10.0,WNW,9.2,-,N/A,,Clear,300,2013-01-22 18:55:00
2:15 PM,21.2,-4.0,33,30.31,10.0,West,11.5,-,N/A,,Clear,270,2013-01-22 19:15:00
2:35 PM,21.2,-4.0,33,30.30,10.0,West,6.9,-,N/A,,Clear,280,2013-01-22 19:35:00
3:15 PM,23.0,-5.8,28,30.30,10.0,West,11.5,17.3,N/A,,Clear,270,2013-01-22 20:15:00
3:35 PM,23.0,-4.0,31,30.31,10.0,West,11.5,16.1,N/A,,Clear,270,2013-01-22 20:35:00
3:55 PM,23.0,-4.0,31,30.31,10.0,West,9.2,12.7,N/A,,Clear,280,2013-01-22 20:55:00
4:15 PM,23.0,-2.2,33,30.31,10.0,West,11.5,17.3,N/A,,Clear,280,2013-01-22 21:15:00
4:35 PM,21.2,-2.2,36,30.32,10.0,West,10.4,16.1,N/A,,Mostly Cloudy,270,2013-01-22 21:35:00
4:55 PM,21.2,-4.0,33,30.31,10.0,West,10.4,-,N/A,,Overcast,260,2013-01-22 21:55:00
5:15 PM,21.2,-4.0,33,30.31,10.0,WNW,9.2,-,N/A,,Overcast,300,2013-01-22 22:15:00
5:35 PM,21.2,-4.0,33,30.30,10.0,NW,6.9,-,N/A,,Overcast,310,2013-01-22 22:35:00
5:55 PM,21.2,-2.2,36,30.32,10.0,WNW,8.1,-,N/A,,Overcast,300,2013-01-22 22:55:00
6:15 PM,21.2,-2.2,36,30.31,10.0,WNW,6.9,-,N/A,,Overcast,300,2013-01-22 23:15:00
6:35 PM,21.2,-0.4,39,30.31,10.0,WNW,9.2,-,N/A,,Overcast,290,2013-01-22 23:35:00
6:55 PM,19.4,-2.2,39,30.30,10.0,West,8.1,-,N/A,,Overcast,280,2013-01-22 23:55:00
7:15 PM,19.4,-2.2,39,30.32,10.0,West,8.1,-,N/A,,Overcast,280,2013-01-23 00:15:00
7:35 PM,19.4,-0.4,42,30.33,10.0,WNW,8.1,-,N/A,,Overcast,290,2013-01-23 00:35:00
7:55 PM,19.4,-2.2,39,30.33,10.0,West,6.9,-,N/A,,Scattered Clouds,280,2013-01-23 00:55:00
8:15 PM,17.6,-0.4,45,30.32,10.0,West,5.8,-,N/A,,Clear,280,2013-01-23 01:15:00
8:35 PM,17.6,-0.4,45,30.32,10.0,West,4.6,-,N/A,,Clear,280,2013-01-23 01:35:00
8:55 PM,17.6,1.4,49,30.32,10.0,West,5.8,-,N/A,,Clear,270,2013-01-23 01:55:00
9:15 PM,17.6,1.4,49,30.31,10.0,West,4.6,-,N/A,,Clear,260,2013-01-23 02:15:00
9:35 PM,17.6,-0.4,45,30.32,10.0,West,3.5,-,N/A,,Clear,260,2013-01-23 02:35:00
9:55 PM,17.6,-0.4,45,30.31,10.0,WSW,4.6,-,N/A,,Clear,250,2013-01-23 02:55:00
10:15 PM,17.6,1.4,49,30.32,10.0,West,4.6,-,N/A,,Scattered Clouds,260,2013-01-23 03:15:00
10:35 PM,17.6,1.4,49,30.32,10.0,West,4.6,-,N/A,,Mostly Cloudy,260,2013-01-23 03:35:00
10:55 PM,17.6,3.2,53,30.33,10.0,West,4.6,-,N/A,,Overcast,260,2013-01-23 03:55:00
11:15 PM,17.6,3.2,53,30.33,10.0,West,5.8,-,N/A,,Overcast,260,2013-01-23 04:15:00
11:35 PM,17.6,3.2,53,30.33,10.0,West,4.6,-,N/A,,Overcast,270,2013-01-23 04:35:00
11:55 PM,17.6,1.4,49,30.33,10.0,West,5.8,-,N/A,,Overcast,270,2013-01-23 04:55:00